Location: Umburanas
(4.5000°S, 37.9667°W)
Time: 22:33:00
(UTC+00:00)

Ariane H10-3 - Pass Details

Date: 19 November 2019
Orbit: 457 x 36470 km, 5.1° (Epoch: 12 December)

Event Time Altitude Azimuth Distance (km) Brightness Sun altitude
Rises 13:21:47 0° 278° (W) 11,128 7.8 69.8°
Reaches altitude 10° 13:27:53 10° 280° (W) 11,782 8.0 70.8°
Drops below altitude 10° 21:48:19 10° 271° (W) 26,942 10.8 -19.7°
Enters shadow 23:27:46 80° 259° (WSW) 1,940 3.8 -41.9°
